TimeGMT,TemperatureF,Dew PointF,Humidity,Sea Level PressureIn,VisibilityMPH,Wind Direction,Wind SpeedMPH,Gust SpeedMPH,PrecipitationIn,Events,Conditions,WindDirDegrees,DateUTC
5:50 AM,47,41,72,30.23,28,NNE,12.7,,,,Mostly Cloudy,30,2012-12-10 05:50:00
7:50 AM,44.6,37.4,76,30.24,6.2,NE,11.5,-,N/A,,Partly Cloudy,40,2012-12-10 07:50:00
8:20 AM,44.6,37.4,76,30.24,6.2,NE,10.4,-,N/A,,Partly Cloudy,40,2012-12-10 08:20:00
8:50 AM,46,38,63,30.27,28,NE,10.4,,,,,40,2012-12-10 08:50:00
8:50 AM,44.6,37.4,76,30.24,6.2,NE,10.4,-,N/A,,Partly Cloudy,40,2012-12-10 08:50:00
9:20 AM,46.4,37.4,71,30.24,-9999.0,NE,10.4,-,N/A,,Clear,50,2012-12-10 09:20:00
9:50 AM,46.4,35.6,66,30.27,6.2,ENE,11.5,-,N/A,,Partly Cloudy,60,2012-12-10 09:50:00
10:20 AM,48.2,35.6,62,30.27,6.2,ENE,11.5,-,N/A,,Partly Cloudy,60,2012-12-10 10:20:00
10:50 AM,48.2,35.6,62,30.27,6.2,ENE,11.5,-,N/A,,Partly Cloudy,60,2012-12-10 10:50:00
11:20 AM,48.2,37.4,66,30.27,6.2,ENE,11.5,-,N/A,,Partly Cloudy,70,2012-12-10 11:20:00
11:50 AM,48,36,52,30.28,22,East,13.8,,,,Partly Cloudy,90,2012-12-10 11:50:00
11:50 AM,48.2,35.6,62,30.27,6.2,East,12.7,-,N/A,,Partly Cloudy,90,2012-12-10 11:50:00
12:20 PM,48.2,35.6,62,30.27,6.2,East,10.4,-,N/A,,Partly Cloudy,100,2012-12-10 12:20:00
12:50 PM,48.2,35.6,62,30.27,6.2,East,8.1,-,N/A,,Partly Cloudy,100,2012-12-10 12:50:00
1:20 PM,48.2,37.4,66,30.27,6.2,East,5.8,-,N/A,,Partly Cloudy,90,2012-12-10 13:20:00
1:50 PM,50.0,37.4,62,30.27,6.2,ESE,5.8,-,N/A,,Partly Cloudy,110,2012-12-10 13:50:00
2:20 PM,48.2,39.2,71,30.27,6.2,East,10.4,-,N/A,,Partly Cloudy,80,2012-12-10 14:20:00
2:50 PM,47,38,61,30.27,25,East,11.5,,,,,80,2012-12-10 14:50:00
2:50 PM,48.2,37.4,66,30.27,6.2,ENE,11.5,-,N/A,,Partly Cloudy,70,2012-12-10 14:50:00
3:20 PM,46.4,37.4,71,30.27,6.2,East,10.4,-,N/A,,Partly Cloudy,80,2012-12-10 15:20:00
3:50 PM,46.4,37.4,71,30.27,6.2,ENE,11.5,-,N/A,,Partly Cloudy,60,2012-12-10 15:50:00
4:20 PM,44.6,37.4,76,30.27,6.2,ENE,10.4,-,N/A,,Partly Cloudy,70,2012-12-10 16:20:00
5:50 PM,44,36,64,30.31,31,East,8.1,,,,,80,2012-12-10 17:50:00
8:50 PM,45,36,61,30.33,28,East,15.0,,,,Scattered Clouds,100,2012-12-10 20:50:00
11:50 PM,45,37,64,30.35,28,ESE,21.9,,,,Scattered Clouds,110,2012-12-10 23:50:00